Time,TemperatureF,DewpointF,PressureIn,WindDirection,WindDirectionDegrees,WindSpeedMPH,WindSpeedGustMPH,Humidity,HourlyPrecipIn,Conditions,Clouds,dailyrainin,SolarRadiationWatts/m^2,SoftwareType,DateUTC
2013-09-10 00:01:00,59.6,56.0,30.14,SSW,192,0.0,-999.0,88,-99.99,,,0.00,0,weatherlink.com 1.10,2013-09-10 04:01:00,
2013-09-10 00:16:00,59.9,56.0,30.14,SSW,192,0.0,-999.0,88,-99.99,,,0.00,0,weatherlink.com 1.10,2013-09-10 04:16:00,
2013-09-10 00:31:00,60.1,57.0,30.13,SSW,192,0.0,-999.0,88,-99.99,,,0.00,0,weatherlink.com 1.10,2013-09-10 04:31:00,
2013-09-10 00:46:00,60.3,57.0,30.12,SSW,192,0.0,-999.0,88,-99.99,,,0.00,0,weatherlink.com 1.10,2013-09-10 04:46:00,
2013-09-10 01:01:00,60.3,57.0,30.13,SSW,192,0.0,-999.0,88,-99.99,,,0.00,0,weatherlink.com 1.10,2013-09-10 05:01:00,
2013-09-10 01:16:00,60.3,57.0,30.14,SSW,192,0.0,-999.0,89,-99.99,,,0.00,0,weatherlink.com 1.10,2013-09-10 05:16:00,
2013-09-10 01:31:00,60.4,58.0,30.13,SSW,192,0.0,-999.0,90,-99.99,,,0.00,0,weatherlink.com 1.10,2013-09-10 05:31:00,
2013-09-10 01:46:00,60.5,58.0,30.13,SSW,192,0.0,-999.0,90,-99.99,,,0.00,0,weatherlink.com 1.10,2013-09-10 05:46:00,
2013-09-10 02:01:00,60.6,58.0,30.13,SSW,192,0.0,-999.0,90,-99.99,,,0.00,0,weatherlink.com 1.10,2013-09-10 06:01:00,
2013-09-10 02:16:00,60.8,58.0,30.13,SSW,192,0.0,-999.0,90,-99.99,,,0.00,0,weatherlink.com 1.10,2013-09-10 06:16:00,
2013-09-10 02:31:00,60.7,58.0,30.13,SSW,192,0.0,-999.0,90,-99.99,,,0.00,0,weatherlink.com 1.10,2013-09-10 06:31:00,
2013-09-10 02:46:00,60.8,58.0,30.13,SSW,192,0.0,-999.0,90,-99.99,,,0.00,0,weatherlink.com 1.10,2013-09-10 06:46:00,
2013-09-10 03:01:00,61.0,58.0,30.12,SSW,192,0.0,-999.0,91,-99.99,,,0.00,0,weatherlink.com 1.10,2013-09-10 07:01:00,
2013-09-10 03:16:00,61.2,59.0,30.11,SSW,192,0.0,-999.0,91,-99.99,,,0.00,0,weatherlink.com 1.10,2013-09-10 07:16:00,
2013-09-10 03:31:00,61.4,59.0,30.11,SSW,192,0.0,-999.0,91,-99.99,,,0.00,0,weatherlink.com 1.10,2013-09-10 07:31:00,
2013-09-10 03:46:00,61.5,59.0,30.11,SSW,192,0.0,-999.0,92,-99.99,,,0.00,0,weatherlink.com 1.10,2013-09-10 07:46:00,
2013-09-10 04:01:00,61.6,59.0,30.11,SSW,192,0.0,-999.0,92,-99.99,,,0.00,0,weatherlink.com 1.10,2013-09-10 08:01:00,
2013-09-10 04:16:00,61.6,59.0,30.11,SSW,192,0.0,-999.0,92,-99.99,,,0.00,0,weatherlink.com 1.10,2013-09-10 08:16:00,
2013-09-10 04:31:00,61.7,60.0,30.11,SSW,192,0.0,-999.0,93,-99.99,,,0.00,0,weatherlink.com 1.10,2013-09-10 08:31:00,
2013-09-10 04:46:00,61.9,60.0,30.11,SSW,192,0.0,-999.0,94,-99.99,,,0.03,0,weatherlink.com 1.10,2013-09-10 08:46:00,
2013-09-10 05:01:00,61.8,60.0,30.11,SSW,192,0.0,-999.0,94,-99.99,,,0.03,0,weatherlink.com 1.10,2013-09-10 09:01:00,
2013-09-10 05:16:00,61.8,60.0,30.12,SSW,192,0.0,-999.0,95,-99.99,,,0.03,0,weatherlink.com 1.10,2013-09-10 09:16:00,
2013-09-10 05:31:00,62.2,61.0,30.12,SSW,192,0.0,-999.0,95,-99.99,,,0.03,0,weatherlink.com 1.10,2013-09-10 09:31:00,
2013-09-10 05:46:00,62.5,61.0,30.11,SSW,192,0.0,-999.0,96,-99.99,,,0.04,0,weatherlink.com 1.10,2013-09-10 09:46:00,
2013-09-10 06:01:00,62.9,62.0,30.11,SSW,192,0.0,-999.0,96,-99.99,,,0.04,0,weatherlink.com 1.10,2013-09-10 10:01:00,
2013-09-10 06:16:00,63.1,62.0,30.11,South,189,0.0,-999.0,96,-99.99,,,0.04,0,weatherlink.com 1.10,2013-09-10 10:16:00,
2013-09-10 06:31:00,63.2,62.0,30.11,South,188,0.0,-999.0,96,-99.99,,,0.04,0,weatherlink.com 1.10,2013-09-10 10:31:00,
2013-09-10 06:46:00,63.5,62.0,30.12,South,189,0.0,-999.0,96,-99.99,,,0.04,0,weatherlink.com 1.10,2013-09-10 10:46:00,
2013-09-10 07:01:00,63.7,63.0,30.12,South,189,0.0,-999.0,97,-99.99,,,0.04,5,weatherlink.com 1.10,2013-09-10 11:01:00,
2013-09-10 07:16:00,63.9,63.0,30.13,South,189,0.0,-999.0,97,-99.99,,,0.04,0,weatherlink.com 1.10,2013-09-10 11:16:00,
2013-09-10 07:31:00,64.1,63.0,30.11,South,184,1.0,-999.0,97,-99.99,,,0.04,23,weatherlink.com 1.10,2013-09-10 11:31:00,
2013-09-10 07:46:00,64.3,64.0,30.11,SSW,207,1.0,-999.0,97,-99.99,,,0.04,19,weatherlink.com 1.10,2013-09-10 11:46:00,
2013-09-10 08:01:00,64.6,64.0,30.10,SE,126,2.0,-999.0,97,-99.99,,,0.04,35,weatherlink.com 1.10,2013-09-10 12:01:00,
2013-09-10 08:16:00,64.9,64.0,30.11,South,175,0.0,-999.0,97,-99.99,,,0.04,40,weatherlink.com 1.10,2013-09-10 12:16:00,
2013-09-10 08:31:00,65.0,64.0,30.11,South,189,1.0,-999.0,97,-99.99,,,0.04,26,weatherlink.com 1.10,2013-09-10 12:31:00,
2013-09-10 08:46:00,65.2,64.0,30.11,South,184,0.0,-999.0,97,-99.99,,,0.04,30,weatherlink.com 1.10,2013-09-10 12:46:00,
2013-09-10 09:01:00,65.4,65.0,30.12,SSE,150,0.0,-999.0,97,-99.99,,,0.04,32,weatherlink.com 1.10,2013-09-10 13:01:00,
2013-09-10 09:16:00,65.6,65.0,30.13,SSE,149,0.0,-999.0,97,-99.99,,,0.04,51,weatherlink.com 1.10,2013-09-10 13:16:00,
2013-09-10 09:31:00,65.9,65.0,30.12,South,180,4.0,-999.0,97,-99.99,,,0.04,60,weatherlink.com 1.10,2013-09-10 13:31:00,
2013-09-10 09:46:00,66.3,66.0,30.12,South,180,1.0,-999.0,97,-99.99,,,0.04,79,weatherlink.com 1.10,2013-09-10 13:46:00,
2013-09-10 10:01:00,66.7,66.0,30.13,South,185,4.0,-999.0,97,-99.99,,,0.04,83,weatherlink.com 1.10,2013-09-10 14:01:00,
2013-09-10 10:16:00,67.2,66.0,30.13,WNW,290,3.0,-999.0,97,-99.99,,,0.04,67,weatherlink.com 1.10,2013-09-10 14:16:00,
2013-09-10 10:31:00,67.5,67.0,30.14,SW,225,0.0,-999.0,97,-99.99,,,0.04,79,weatherlink.com 1.10,2013-09-10 14:31:00,
2013-09-10 10:46:00,67.6,67.0,30.13,SW,222,1.0,-999.0,97,-99.99,,,0.04,53,weatherlink.com 1.10,2013-09-10 14:46:00,
2013-09-10 11:01:00,67.8,67.0,30.14,SW,223,0.0,-999.0,97,-99.99,,,0.04,35,weatherlink.com 1.10,2013-09-10 15:01:00,
2013-09-10 11:16:00,67.9,67.0,30.15,SW,223,0.0,-999.0,97,-99.99,,,0.06,42,weatherlink.com 1.10,2013-09-10 15:16:00,
2013-09-10 11:31:00,68.1,67.0,30.14,SW,223,0.0,-999.0,97,-99.99,,,0.06,98,weatherlink.com 1.10,2013-09-10 15:31:00,
2013-09-10 11:46:00,68.2,67.0,30.10,South,185,1.0,-999.0,97,-99.99,,,0.06,153,weatherlink.com 1.10,2013-09-10 15:46:00,
2013-09-10 12:01:00,68.7,68.0,30.08,SSE,168,0.0,-999.0,97,-99.99,,,0.06,155,weatherlink.com 1.10,2013-09-10 16:01:00,
2013-09-10 12:16:00,69.0,68.0,30.07,SSE,167,1.0,-999.0,97,-99.99,,,0.06,107,weatherlink.com 1.10,2013-09-10 16:16:00,
2013-09-10 12:31:00,69.5,69.0,30.06,SSW,196,1.0,-999.0,97,-99.99,,,0.06,160,weatherlink.com 1.10,2013-09-10 16:31:00,
2013-09-10 12:46:00,69.9,69.0,30.04,South,188,3.0,-999.0,97,-99.99,,,0.06,243,weatherlink.com 1.10,2013-09-10 16:46:00,
2013-09-10 13:01:00,70.6,70.0,30.03,South,177,2.0,-999.0,96,-99.99,,,0.06,223,weatherlink.com 1.10,2013-09-10 17:01:00,
2013-09-10 13:16:00,71.3,70.0,30.04,WSW,253,1.0,-999.0,95,-99.99,,,0.06,183,weatherlink.com 1.10,2013-09-10 17:16:00,
2013-09-10 13:31:00,71.9,70.0,30.07,WSW,246,0.0,-999.0,94,-99.99,,,0.06,90,weatherlink.com 1.10,2013-09-10 17:31:00,
2013-09-10 13:46:00,72.3,71.0,30.05,SW,224,1.0,-999.0,94,-99.99,,,0.06,250,weatherlink.com 1.10,2013-09-10 17:46:00,
2013-09-10 14:01:00,73.0,71.0,30.06,South,191,0.0,-999.0,92,-99.99,,,0.06,163,weatherlink.com 1.10,2013-09-10 18:01:00,
2013-09-10 14:16:00,73.9,71.0,30.06,SW,215,1.0,-999.0,91,-99.99,,,0.06,339,weatherlink.com 1.10,2013-09-10 18:16:00,
2013-09-10 14:31:00,75.9,72.0,30.05,WSW,246,0.0,-999.0,88,-99.99,,,0.06,401,weatherlink.com 1.10,2013-09-10 18:31:00,
2013-09-10 14:46:00,77.4,72.0,30.05,WSW,257,1.0,-999.0,84,-99.99,,,0.06,369,weatherlink.com 1.10,2013-09-10 18:46:00,
2013-09-10 15:01:00,77.6,72.0,30.04,South,173,5.0,-999.0,83,-99.99,,,0.06,185,weatherlink.com 1.10,2013-09-10 19:01:00,
2013-09-10 15:16:00,78.0,73.0,30.04,SE,133,1.0,-999.0,83,-99.99,,,0.06,578,weatherlink.com 1.10,2013-09-10 19:16:00,
2013-09-10 15:31:00,78.9,73.0,30.04,SSW,193,6.0,-999.0,81,-99.99,,,0.06,443,weatherlink.com 1.10,2013-09-10 19:31:00,
2013-09-10 15:46:00,79.6,73.0,30.03,SSW,209,6.0,-999.0,81,-99.99,,,0.06,334,weatherlink.com 1.10,2013-09-10 19:46:00,
2013-09-10 16:01:00,79.3,73.0,30.03,SSW,213,2.0,-999.0,81,-99.99,,,0.06,141,weatherlink.com 1.10,2013-09-10 20:01:00,
2013-09-10 16:16:00,79.2,73.0,30.03,SSW,207,0.0,-999.0,82,-99.99,,,0.06,165,weatherlink.com 1.10,2013-09-10 20:16:00,
2013-09-10 16:31:00,79.5,74.0,30.03,SW,218,3.0,-999.0,82,-99.99,,,0.06,429,weatherlink.com 1.10,2013-09-10 20:31:00,
2013-09-10 16:46:00,81.1,74.0,30.02,SSW,204,0.0,-999.0,79,-99.99,,,0.06,401,weatherlink.com 1.10,2013-09-10 20:46:00,
2013-09-10 17:01:00,81.6,74.0,30.02,South,180,5.0,-999.0,78,-99.99,,,0.06,156,weatherlink.com 1.10,2013-09-10 21:01:00,
2013-09-10 17:16:00,81.0,74.0,30.02,SSE,168,1.0,-999.0,79,-99.99,,,0.06,237,weatherlink.com 1.10,2013-09-10 21:16:00,
2013-09-10 17:31:00,81.6,75.0,30.02,SSW,201,0.0,-999.0,79,-99.99,,,0.06,218,weatherlink.com 1.10,2013-09-10 21:31:00,
2013-09-10 17:46:00,81.3,74.0,30.02,SW,217,0.0,-999.0,79,-99.99,,,0.06,156,weatherlink.com 1.10,2013-09-10 21:46:00,
2013-09-10 18:01:00,80.8,75.0,30.02,SSW,199,1.0,-999.0,81,-99.99,,,0.06,74,weatherlink.com 1.10,2013-09-10 22:01:00,
2013-09-10 18:16:00,80.3,74.0,30.02,South,170,0.0,-999.0,82,-99.99,,,0.06,70,weatherlink.com 1.10,2013-09-10 22:16:00,
2013-09-10 18:31:00,80.1,75.0,30.02,SE,146,0.0,-999.0,83,-99.99,,,0.06,44,weatherlink.com 1.10,2013-09-10 22:31:00,
2013-09-10 18:46:00,79.7,74.0,30.03,South,188,2.0,-999.0,83,-99.99,,,0.06,26,weatherlink.com 1.10,2013-09-10 22:46:00,
2013-09-10 19:01:00,78.8,74.0,30.03,South,184,2.0,-999.0,84,-99.99,,,0.06,11,weatherlink.com 1.10,2013-09-10 23:01:00,
2013-09-10 19:16:00,78.1,73.0,30.03,SW,226,0.0,-999.0,85,-99.99,,,0.06,0,weatherlink.com 1.10,2013-09-10 23:16:00,
2013-09-10 19:31:00,77.4,73.0,30.04,SW,226,0.0,-999.0,87,-99.99,,,0.06,0,weatherlink.com 1.10,2013-09-10 23:31:00,
2013-09-10 19:46:00,76.6,73.0,30.04,SW,226,0.0,-999.0,89,-99.99,,,0.06,0,weatherlink.com 1.10,2013-09-10 23:46:00,
2013-09-10 20:01:00,75.8,73.0,30.04,SW,226,0.0,-999.0,90,-99.99,,,0.06,0,weatherlink.com 1.10,2013-09-11 00:01:00,
2013-09-10 20:16:00,75.3,73.0,30.05,SW,226,0.0,-999.0,91,-99.99,,,0.06,0,weatherlink.com 1.10,2013-09-11 00:16:00,
2013-09-10 20:31:00,74.7,72.0,30.05,SW,226,0.0,-999.0,91,-99.99,,,0.06,0,weatherlink.com 1.10,2013-09-11 00:31:00,
2013-09-10 20:46:00,74.2,72.0,30.06,SW,226,0.0,-999.0,92,-99.99,,,0.06,0,weatherlink.com 1.10,2013-09-11 00:46:00,
2013-09-10 21:01:00,73.5,71.0,30.06,SW,226,0.0,-999.0,93,-99.99,,,0.06,0,weatherlink.com 1.10,2013-09-11 01:01:00,
2013-09-10 21:16:00,73.0,71.0,30.06,SW,226,0.0,-999.0,94,-99.99,,,0.06,0,weatherlink.com 1.10,2013-09-11 01:16:00,
2013-09-10 21:31:00,72.5,71.0,30.06,SW,226,0.0,-999.0,94,-99.99,,,0.06,0,weatherlink.com 1.10,2013-09-11 01:31:00,
2013-09-10 21:46:00,72.2,71.0,30.06,SW,226,0.0,-999.0,95,-99.99,,,0.06,0,weatherlink.com 1.10,2013-09-11 01:46:00,
2013-09-10 22:01:00,71.9,71.0,30.06,SW,226,0.0,-999.0,95,-99.99,,,0.06,0,weatherlink.com 1.10,2013-09-11 02:01:00,
2013-09-10 22:16:00,72.0,71.0,30.06,SW,226,0.0,-999.0,96,-99.99,,,0.06,0,weatherlink.com 1.10,2013-09-11 02:16:00,
2013-09-10 22:31:00,72.0,71.0,30.06,SW,226,0.0,-999.0,95,-99.99,,,0.06,0,weatherlink.com 1.10,2013-09-11 02:31:00,
2013-09-10 22:46:00,72.0,71.0,30.06,SW,226,0.0,-999.0,96,-99.99,,,0.06,0,weatherlink.com 1.10,2013-09-11 02:46:00,
2013-09-10 23:01:00,71.9,71.0,30.06,SW,226,0.0,-999.0,95,-99.99,,,0.06,0,weatherlink.com 1.10,2013-09-11 03:01:00,
2013-09-10 23:16:00,71.7,71.0,30.07,SW,226,0.0,-999.0,96,-99.99,,,0.06,0,weatherlink.com 1.10,2013-09-11 03:16:00,
2013-09-10 23:31:00,71.4,70.0,30.06,SW,226,0.0,-999.0,95,-99.99,,,0.06,0,weatherlink.com 1.10,2013-09-11 03:31:00,
2013-09-10 23:46:00,70.7,70.0,30.06,SW,226,0.0,-999.0,96,-99.99,,,0.06,0,weatherlink.com 1.10,2013-09-11 03:46:00,